Quantico, VA

4:14 AM EST on December 11, 2019 (GMT -0500)
Quantico Marine Corps Air Facility

Weather History for KNYG - October, 2019

Change the Weather History Date:

Monday, October 7, 2019

  Actual Average Record
Temperature  
Mean Temperature 74 °F -  
Max Temperature 82 °F 68 °F 91 °F (2007)
Min Temperature 66 °F 49 °F 39 °F (2001)
Cooling Degree Days 8    
Growing Degree Days 24 (Base 50)    
Moisture  
Dew Point 62 °F    
Average Humidity 70    
Maximum Humidity 87    
Minimum Humidity 58    
Precipitation  
Precipitation 0.00 in - - ()
Sea Level Pressure  
Sea Level Pressure 30.14 in    
Wind  
Wind Speed 12 mph (SSW)    
Max Wind Speed 21 mph    
Max Gust Speed 28 mph    
Visibility 10 miles    
Events      
Averages and records for this station are not official NWS values.
T = Trace of Precipitation, MM = Missing Value Source: NWS Daily Summary

Daily Weather History Graph

Daily Weather History Graph

Search for Another Location

Airport or City:

Astronomy

Oct. 07, 2019 Rise Set
Actual Time 7:10 AM EDT 6:43 PM EDT
Civil Twilight 6:43 AM EDT 7:09 PM EDT
Nautical Twilight 6:13 AM EDT 7:40 PM EDT
Astronomical Twilight 5:42 AM EDT 8:11 PM EDT
Moon 3:58 PM EDT (10/7) 1:06 AM EDT (10/7)
Length of Visible Light 12h 25m
Length of Day
11h 32m
Waxing Gibbous, 69% of the Moon is Illuminated
Oct 7
Waxing Gibbous
Oct 13
Full
Oct 21
Last Quarter
Oct 27
New
Nov 4
First Quarter

Hourly Weather History & Observations

Time (EDT) Temp. Heat Index Dew Point Humidity Pressure Visibility Wind Dir Wind Speed Gust Speed Precip Events Conditions
12:56 AM 66.9 °F - 62.1 °F 84% 30.21 in 10.0 mi SSW 16.1 mph 20.7 mph N/A   Overcast
1:56 AM 72.0 °F - 62.1 °F 71% 30.21 in 10.0 mi SSW 16.1 mph - N/A   Overcast
2:56 AM 71.1 °F - 61.0 °F 70% 30.19 in 10.0 mi SSW 10.4 mph - N/A   Overcast
3:56 AM 71.1 °F - 62.1 °F 73% 30.18 in 10.0 mi SSW 12.7 mph - N/A   Overcast
4:56 AM 71.1 °F - 62.1 °F 73% 30.18 in 10.0 mi SSW 13.8 mph - N/A   Overcast
5:56 AM 70.0 °F - 61.0 °F 73% 30.18 in 10.0 mi SSW 11.5 mph - N/A   Overcast
6:56 AM 69.1 °F - 61.0 °F 75% 30.18 in 10.0 mi WSW 5.8 mph - N/A   Mostly Cloudy
7:56 AM 69.1 °F - 61.0 °F 75% 30.19 in 10.0 mi SSW 6.9 mph - N/A   Mostly Cloudy
8:56 AM 66.0 °F - 62.1 °F 87% 30.19 in 10.0 mi SSW 9.2 mph - N/A   Scattered Clouds
9:56 AM 73.0 °F - 63.0 °F 71% 30.19 in 10.0 mi South 10.4 mph - N/A   Scattered Clouds
10:56 AM 73.9 °F - 64.0 °F 71% 30.17 in 10.0 mi South 11.5 mph - N/A   Scattered Clouds
11:56 AM 77.0 °F - 64.9 °F 66% 30.15 in 10.0 mi South 9.2 mph - N/A   Scattered Clouds
12:56 PM 79.0 °F - 64.9 °F 62% 30.13 in 10.0 mi South 10.4 mph - N/A   Scattered Clouds
1:56 PM 80.1 °F 81.7 °F 64.0 °F 58% 30.10 in 10.0 mi South 10.4 mph - N/A   Mostly Cloudy
2:56 PM 80.1 °F 81.9 °F 64.9 °F 60% 30.08 in 10.0 mi South 10.4 mph - N/A   Mostly Cloudy
3:56 PM 81.0 °F 83.0 °F 66.0 °F 60% 30.06 in 10.0 mi South 6.9 mph - N/A   Mostly Cloudy
4:56 PM 80.1 °F 82.1 °F 66.0 °F 62% 30.04 in 10.0 mi South 8.1 mph - N/A   Mostly Cloudy
5:56 PM 79.0 °F - 64.9 °F 62% 30.03 in 10.0 mi South 3.5 mph - N/A   Partly Cloudy
6:56 PM 75.9 °F - 64.9 °F 69% 30.05 in 10.0 mi NW 4.6 mph - N/A   Mostly Cloudy
7:56 PM 73.9 °F - 64.9 °F 73% 30.06 in 10.0 mi NW 4.6 mph - N/A   Mostly Cloudy
8:56 PM 71.1 °F - 61.0 °F 70% 30.11 in 10.0 mi NNW 20.7 mph 27.6 mph N/A   Overcast
9:56 PM 68.0 °F - 57.9 °F 70% 30.16 in 10.0 mi NNE 13.8 mph 21.9 mph N/A   Overcast
10:56 PM 68.0 °F - 57.0 °F 68% 30.15 in 10.0 mi NNE 15.0 mph - N/A   Overcast
11:56 PM 66.9 °F - 55.9 °F 68% 30.16 in 10.0 mi NNE 16.1 mph - N/A   Overcast